Regional Weather Roundup
Issued by NWS Sioux Falls, SD

Home | Current Version | Previous Version | Text Only | Print | Product List | Glossary Off
Versions: 1 2 3 4 5 6 7 8 9 10 11 12 13 14 15 16 17 18 19 20 21 22 23 24 25 26 27 28 29 30 31 32 33 34 35 36 37 38 39 40 41 42 43 44 45 46 47 48 49 50

000
ASUS43 KFSD 212010
RWRFSD

WEATHER ROUNDUP FOR SE SOUTH DAKOTA/SW MINNESOTA/NW IOWA
NATIONAL WEATHER SERVICE SIOUX FALLS SD
300 PM CDT FRI JUL 21 2017

NOTE: "FAIR" INDICATES FEW OR NO CLOUDS BELOW 12,000 FEET WITH NO
SIGNIFICANT WEATHER AND OR OBSTRUCTIONS TO VISIBILITY.


SDZ038>040-050-052>070-212100-
SOUTHEAST SOUTH DAKOTA

CITY           SKY/WX    TMP DP  RH WIND       PRES   REMARKS
BROOKINGS      SUNNY     85  72  65 SW7       29.85S
CHAMBERLAIN    MOSUNNY   94  73  50 CALM      29.79S HX 103
HURON          MOSUNNY   88  70  55 S7        29.78F
MADISON        FAIR      82  75  78 S10       29.85S
MITCHELL       SUNNY     89  71  55 SE12      29.79F HX  95
SIOUX FALLS    PTSUNNY   85  73  67 SE9       29.83F
WINNER         FAIR      99  68  36 N9        29.80F HX 104
YANKTON        SUNNY     88  76  67 E9        29.79S HX  99
$$

MNZ071-072-080-081-089-090-097-098-212100-
SOUTHWEST MINNESOTA

CITY           SKY/WX    TMP DP  RH WIND       PRES   REMARKS
FAIRMONT       CLOUDY    77  70  79 SE16      29.88R
JACKSON        PTSUNNY   77  70  78 SE15      29.89S
LUVERNE        CLOUDY    81  66  61 SE7       29.86S
MARSHALL       PTSUNNY   84  73  70 S14       29.83F
MONTEVIDEO     CLOUDY    88  73  62 S8        29.83S HX  96
PIPESTONE      MOSUNNY   82  72  69 SE6       29.87S
REDWOOD FALLS  MOSUNNY   83  71  67 S17       29.85S
WINDOM         CLOUDY    81  70  69 SE16      29.87S
WORTHINGTON    CLOUDY    79  72  79 SE12      29.88S
$$

IAZ001>003-012>014-020>022-031-032-NEZ013-014-SDZ071-212100-
NORTHWEST IOWA

CITY           SKY/WX    TMP DP  RH WIND       PRES   REMARKS
CHEROKEE       CLOUDY    78  74  88 E9        29.82S
DENISON        MOSUNNY   88  77  70 S7        29.82S HX 100
ESTHERVILLE    CLOUDY    76  72  87 SE13      29.87R
ORANGE CITY    CLOUDY    82  75  78 SE10      29.83S
SHELDON        CLOUDY    82  73  74 E13       29.83S
SIOUX CITY     CLOUDY    88  77  69 E9        29.78F HX 100
SPENCER        CLOUDY    79  72  79 SE10      29.87R
STORM LAKE     CLOUDY    75  73  94 SE10G18   29.83R
$$

ABBREVIATIONS USED IN REMARKS
   TC - TEMPERATURE IN CELSIUS
  WCI - WIND CHILL INDEX
   HX - HEAT INDEX
  VSB - VISIBILITY





USA.gov is the U.S. government's official web portal to all federal, state and local government web resources and services.